Location: Rancho Del Sol Observatory
(38.7214°N, 120.6350°W)
Time: 18:35:42
(UTC-08:00)

A-11 Canister half - Pass Details

Date: 26 January 2020
Orbit: 1517 x 1683 km, 47.2° (Epoch: 26 February)

Event Time Altitude Azimuth Distance (km) Brightness Sun altitude
Exits shadow 06:32:10 - 293° (WNW) 3,741 10.3 -8.4°
Reaches altitude 10° 06:32:22 10° 293° (WNW) 3,680 10.3 -8.3°
Maximum altitude 06:40:54 43° 225° (SW) 2,032 9.5 -6.8°
Drops below altitude 10° 06:49:35 10° 158° (SSE) 3,740 11.7 -5.2°
Sets 06:52:53 0° 152° (SSE) 4,744 12.4 -4.6°
